Location: University Village
(34.0658°N, 117.1620°W)
Time: 15:47:05
(UTC+00:00)

KORONAS-FOTON - Pass Details

Date: 13 April 2024
Orbit: 478 x 497 km, 82.4° (Epoch: 27 May)

Event Time Altitude Azimuth Distance (km) Brightness Sun altitude
Rises 11:22:05 0° 138° (SE) 2,553 7.5 -23.5°
Reaches altitude 10° 11:26:19 10° 90° (E) 1,672 7.2 -22.7°
Drops below altitude 10° 11:26:47 10° 83° (E) 1,672 7.3 -22.6°
Enters shadow 12:32:30 -53° 189° (S) 10,778 10.4 -10.2°
Maximum altitude 13:01:19 33° 280° (W) 829 4.4 -4.5°
